STARLINK-4536, 53783

Orbit data source: Space-Track

STARLINK-4536, 53783 is a payload satellite owned by SpaceX/Seattle (US) in LEO that was launched on Sun, 11 Sep 2022 UTC via an FALCON 9 launch vehicle from the Air Force Eastern Test Range (AFETR). Payload-class satellites include a variety of spacecraft equipped with specific instruments for various scientific and technological missions. These include communications satellites like Starlink; space stations such as the ISS; scientific satellites like the Hubble; Earth observation satellites from companies like Planet Labs, Umbra, and HawkEye 360; GPS; miniature CubeSats for education and research; and military/defense satellites.

Loading next visibility...
Identifier
53783, 2022-111L
Orbit
LEO
Country
Flag of USUS
Related business
Manufacturer
SpaceX/Seattle
Mission
Operational Commercial Communications
Bus & Motor
STARLINK, Unknown motor
Mass
305 kg wet, ~290 kg dry
Launch date (UTC)
2022-09-11 (4 years ago)
Launch vehicle
FALCON 9
Launch site
Air Force Eastern Test Range (AFETR)
Object type
Payload
Rocket body
Debris
Shape & HBR
Box + 1 Pan, 10.1 m
Radar Cross Section
13.562 m², Large (>1 m²)

Expand to show TLE details & history
Last TLE update: 8 hours ago

TLE from 8 hours ago
0 STARLINK-4536
1 53783U 22111L   26219.95778586 -.00000452  00000-0 -10315-4 0  9995
2 53783  53.1618 314.5702 0001254  87.1027 273.0108 15.08825983216538
Epoch: 2026-08-07T22:59Z
TLE epoch observation values (Epoch: 2026-08-07T22:59:12.698Z)
Latitude
-0.00001°
Longitude
13.29126°
Altitude
540.632 km
Speed
7.593 km/s
True Right ascension
20h 58m 16s
True Declination
0° 00' 00"
Sunlit
Object was in full shadow at epoch
Visualization orbit readout
Latitude
Unknown
Longitude
Unknown
Altitude
Unknown
Speed
Unknown
Apparent Right ascension
Unknown
Apparent Declination
Unknown
Sunlit
N/A
Visualization observer readout
Local Sidereal Time
20:59:22
Azimuth
Unknown
Elevation
Unknown
Doppler factor
Unknown
Orbital elements
Apogee altitude
540.908 km
Perigee altitude
539.173 km
Semi-major axis
6,918.177 km
Eccentricity
0.00013
Inclination
53.1618°
RAAN
314.5702°
Arg. of periapsis
87.1027°
True anomaly
272.99645°
Mean anomaly
273.0108°
Eccentric anomaly
273.00362°
Mean motion
3.77186 °/min
Orbital period
95.44 mins
BSTAR
-0.000010315
Loading maneuver chart data...
Computing Atmospheric mass density...
Loading historical data...
Loading historical data...
Loading historical data...
Loading historical data...
Loading historical data...
Loading historical data...
Loading historical data...

Documentation

Showing up to 5 results
|